Simultaneous Nadir Overpasses (SNOs) Predictions

Prediction of SNOs between AQUA and GOES-15 Satellite Orbit:

Table of predicted SNOs for the next 14.0 days since TLE Epoch: 6/1/2024
Index Date Time (AQUA) AQUA Lat,Lon GOES-15 Lat,Lon Distance(km) Time Diff (sec)
1 06/02/2024 09:57:37 0.37, 62.90 0.07, 61.51 158.45 80
2 06/02/2024 22:17:46 0.64, 58.02 -0.09, 61.54 399.12 80
3 06/04/2024 22:01:16 -0.23, 62.06 -0.09, 61.51 63.24 80
4 06/05/2024 10:21:33 -0.84, 57.15 0.11, 61.46 491.15 80
5 06/07/2024 10:05:03 0.08, 61.18 0.11, 61.44 29.22 80
6 06/09/2024 09:48:31 0.91, 65.23 0.10, 61.42 433.01 80
7 06/09/2024 22:08:38 0.13, 60.35 -0.13, 61.45 124.63 80
8 06/11/2024 21:52:07 -0.75, 64.39 -0.12, 61.42 337.89 80
9 06/12/2024 10:12:23 -0.28, 59.48 0.14, 61.38 216.35 80
10 06/14/2024 09:55:50 0.59, 63.53 0.13, 61.36 246.46 80
11 06/14/2024 22:15:58 0.43, 58.65 -0.16, 61.39 311.03 80
